Location: Famechon
(49.7599°N, 2.0615°E)
Time: 09:05:59
(UTC+00:00)

Meteor 2-12 Rocket - Pass Details

Date: 03 February 2023
Orbit: 935 x 958 km, 82.5° (Epoch: 22 March)

Event Time Altitude Azimuth Distance (km) Brightness Sun altitude
Rises 18:16:31 0° 350° (N) 3,624 7.5 -14.2°
Reaches altitude 10° 18:19:01 10° 352° (N) 2,672 6.8 -14.6°
Maximum altitude 18:25:09 80° 79° (E) 958 4.3 -15.6°
Drops below altitude 10° 18:31:11 10° 167° (SSE) 2,642 6.7 -16.6°
Sets 18:33:39 0° 169° (SSE) 3,580 7.4 -17.0°
